TimeEDT,TemperatureF,Dew PointF,Humidity,Sea Level PressureIn,VisibilityMPH,Wind Direction,Wind SpeedMPH,Gust SpeedMPH,PrecipitationIn,Events,Conditions,WindDirDegrees,DateUTC
12:15 AM,42.8,41.0,93,30.22,7.0,ESE,3.5,-,N/A,,Clear,120,2013-10-30 04:15:00
12:35 AM,41.0,37.4,87,30.22,7.0,Calm,Calm,-,N/A,,Clear,0,2013-10-30 04:35:00
12:55 AM,41.0,37.4,87,30.22,5.0,Calm,Calm,-,N/A,,Clear,0,2013-10-30 04:55:00
1:15 AM,39.2,37.4,93,30.21,3.0,Calm,Calm,-,N/A,,Clear,0,2013-10-30 05:15:00
1:35 AM,39.2,35.6,87,30.20,0.8,Calm,Calm,-,N/A,,Mist,0,2013-10-30 05:35:00
1:55 AM,37.4,35.6,93,30.20,0.8,Calm,Calm,-,N/A,,Mist,0,2013-10-30 05:55:00
2:15 AM,35.6,33.8,93,30.20,1.5,Calm,Calm,-,N/A,,Mist,0,2013-10-30 06:15:00
2:35 AM,35.6,33.8,93,30.20,0.2,Calm,Calm,-,N/A,Fog,Fog,0,2013-10-30 06:35:00
2:55 AM,35.6,33.8,93,30.20,4.0,Calm,Calm,-,N/A,,Clear,0,2013-10-30 06:55:00
3:15 AM,35.6,32.0,87,30.20,0.2,Calm,Calm,-,N/A,Fog,Fog,0,2013-10-30 07:15:00
3:35 AM,33.8,32.0,93,30.19,0.8,Calm,Calm,-,N/A,,Mist,0,2013-10-30 07:35:00
3:55 AM,35.6,33.8,93,30.19,0.8,Calm,Calm,-,N/A,,Mist,0,2013-10-30 07:55:00
4:15 AM,33.8,32.0,93,30.18,0.2,Calm,Calm,-,N/A,Fog,Fog,0,2013-10-30 08:15:00
4:35 AM,33.8,32.0,93,30.17,0.2,Calm,Calm,-,N/A,Fog,Fog,0,2013-10-30 08:35:00
4:55 AM,33.8,32.0,93,30.17,0.5,Calm,Calm,-,N/A,Fog,Fog,0,2013-10-30 08:55:00
5:15 AM,33.8,32.0,93,30.17,1.0,Calm,Calm,-,N/A,,Mist,0,2013-10-30 09:15:00
5:35 AM,33.8,32.0,93,30.16,3.0,Calm,Calm,-,N/A,,Clear,0,2013-10-30 09:35:00
5:55 AM,32.0,32.0,100,30.17,4.0,Calm,Calm,-,N/A,,Clear,0,2013-10-30 09:55:00
6:15 AM,32.0,32.0,100,30.18,3.0,Calm,Calm,-,N/A,,Clear,0,2013-10-30 10:15:00
6:35 AM,33.8,32.0,93,30.18,0.8,Calm,Calm,-,N/A,,Overcast,0,2013-10-30 10:35:00
6:55 AM,33.8,32.0,93,30.18,0.2,Calm,Calm,-,N/A,Fog,Fog,0,2013-10-30 10:55:00
7:15 AM,33.8,32.0,93,30.18,0.2,Calm,Calm,-,N/A,Fog,Fog,0,2013-10-30 11:15:00
7:35 AM,33.8,32.0,93,30.17,0.2,Calm,Calm,-,N/A,Fog,Fog,0,2013-10-30 11:35:00
7:55 AM,33.8,32.0,93,30.18,0.2,Calm,Calm,-,N/A,Fog,Fog,0,2013-10-30 11:55:00
8:15 AM,33.8,32.0,93,30.18,0.2,Calm,Calm,-,N/A,Fog,Fog,0,2013-10-30 12:15:00
8:35 AM,33.8,32.0,93,30.19,0.2,Calm,Calm,-,N/A,Fog,Fog,0,2013-10-30 12:35:00
8:55 AM,33.8,32.0,93,30.19,0.2,Calm,Calm,-,N/A,Fog,Fog,0,2013-10-30 12:55:00
9:15 AM,35.6,33.8,93,30.20,0.2,Calm,Calm,-,N/A,Fog,Fog,0,2013-10-30 13:15:00
9:35 AM,37.4,37.4,100,30.20,0.2,Calm,Calm,-,N/A,Fog,Fog,0,2013-10-30 13:35:00
9:55 AM,42.8,41.0,93,30.20,0.8,Calm,Calm,-,N/A,,Overcast,0,2013-10-30 13:55:00
10:15 AM,44.6,42.8,93,30.21,4.0,Calm,Calm,-,N/A,,Scattered Clouds,0,2013-10-30 14:15:00
10:35 AM,46.4,44.6,93,30.20,7.0,Calm,Calm,-,N/A,,Clear,0,2013-10-30 14:35:00
10:55 AM,50.0,44.6,82,30.19,10.0,Calm,Calm,-,N/A,,Clear,0,2013-10-30 14:55:00
11:15 AM,53.6,44.6,72,30.19,10.0,Calm,Calm,-,N/A,,Clear,0,2013-10-30 15:15:00
11:35 AM,53.6,44.6,72,30.18,10.0,Calm,Calm,-,N/A,,Clear,0,2013-10-30 15:35:00
11:55 AM,55.4,44.6,67,30.18,10.0,Calm,Calm,-,N/A,,Clear,0,2013-10-30 15:55:00
12:15 PM,59.0,44.6,59,30.18,10.0,ESE,3.5,-,N/A,,Clear,110,2013-10-30 16:15:00
12:35 PM,60.8,44.6,55,30.18,10.0,SSE,3.5,-,N/A,,Clear,160,2013-10-30 16:35:00
12:55 PM,60.8,44.6,55,30.16,10.0,SE,4.6,-,N/A,,Clear,140,2013-10-30 16:55:00
1:15 PM,62.6,44.6,52,30.15,10.0,East,3.5,-,N/A,,Clear,90,2013-10-30 17:15:00
1:35 PM,62.6,44.6,52,30.13,10.0,East,5.8,-,N/A,,Clear,100,2013-10-30 17:35:00
1:55 PM,62.6,42.8,48,30.13,10.0,SSE,8.1,-,N/A,,Clear,160,2013-10-30 17:55:00
2:15 PM,64.4,44.6,49,30.10,10.0,SE,6.9,-,N/A,,Clear,130,2013-10-30 18:15:00
2:35 PM,64.4,42.8,45,30.10,10.0,WSW,3.5,-,N/A,,Clear,240,2013-10-30 18:35:00
2:55 PM,64.4,44.6,49,30.09,10.0,ENE,4.6,-,N/A,,Clear,60,2013-10-30 18:55:00
3:15 PM,64.4,44.6,49,30.09,10.0,East,4.6,-,N/A,,Clear,80,2013-10-30 19:15:00
3:35 PM,62.6,44.6,52,30.09,10.0,ENE,4.6,-,N/A,,Clear,60,2013-10-30 19:35:00
3:55 PM,62.6,44.6,52,30.09,10.0,ENE,5.8,-,N/A,,Clear,70,2013-10-30 19:55:00
4:15 PM,60.8,44.6,55,30.09,10.0,ESE,6.9,-,N/A,,Mostly Cloudy,110,2013-10-30 20:15:00
4:35 PM,60.8,44.6,55,30.09,10.0,East,4.6,-,N/A,,Mostly Cloudy,100,2013-10-30 20:35:00
4:55 PM,59.0,46.4,63,30.08,10.0,East,4.6,-,N/A,,Mostly Cloudy,90,2013-10-30 20:55:00
5:15 PM,59.0,46.4,63,30.07,10.0,East,3.5,-,N/A,,Overcast,80,2013-10-30 21:15:00
5:35 PM,57.2,46.4,67,30.07,10.0,East,4.6,-,N/A,,Overcast,90,2013-10-30 21:35:00
5:55 PM,55.4,44.6,67,30.07,10.0,ESE,4.6,-,N/A,,Overcast,110,2013-10-30 21:55:00
6:15 PM,55.4,44.6,67,30.07,10.0,East,4.6,-,N/A,,Overcast,100,2013-10-30 22:15:00
6:35 PM,55.4,44.6,67,30.07,10.0,East,3.5,-,N/A,,Overcast,100,2013-10-30 22:35:00
6:55 PM,55.4,46.4,72,30.06,10.0,East,3.5,-,N/A,,Overcast,100,2013-10-30 22:55:00
7:15 PM,53.6,46.4,77,30.06,10.0,East,3.5,-,N/A,,Overcast,100,2013-10-30 23:15:00
7:35 PM,53.6,46.4,77,30.06,7.0,Calm,Calm,-,N/A,,Overcast,0,2013-10-30 23:35:00
7:55 PM,53.6,46.4,77,30.07,7.0,Calm,Calm,-,N/A,,Overcast,0,2013-10-30 23:55:00
8:15 PM,53.6,46.4,77,30.07,5.0,Calm,Calm,-,N/A,,Haze,0,2013-10-31 00:15:00
8:35 PM,53.6,46.4,77,30.05,7.0,ESE,3.5,-,N/A,,Overcast,110,2013-10-31 00:35:00
8:55 PM,53.6,48.2,82,30.05,7.0,ESE,3.5,-,N/A,,Overcast,110,2013-10-31 00:55:00
9:15 PM,53.6,48.2,82,30.04,7.0,ESE,3.5,-,N/A,,Overcast,110,2013-10-31 01:15:00
9:35 PM,53.6,48.2,82,30.03,7.0,ESE,3.5,-,N/A,,Overcast,110,2013-10-31 01:35:00
9:55 PM,55.4,50.0,82,30.02,7.0,Calm,Calm,-,N/A,,Overcast,0,2013-10-31 01:55:00
10:15 PM,55.4,50.0,82,30.01,10.0,SE,3.5,-,N/A,,Overcast,140,2013-10-31 02:15:00
10:35 PM,59.0,51.8,77,30.00,10.0,SE,3.5,-,N/A,,Overcast,140,2013-10-31 02:35:00
10:55 PM,59.0,51.8,77,29.99,10.0,SSE,3.5,-,N/A,,Overcast,150,2013-10-31 02:55:00
11:15 PM,60.8,53.6,77,29.98,10.0,SSE,3.5,-,N/A,,Overcast,150,2013-10-31 03:15:00
11:35 PM,59.0,53.6,82,29.95,10.0,ESE,5.8,-,N/A,,Overcast,110,2013-10-31 03:35:00
11:55 PM,59.0,53.6,82,29.95,10.0,SE,5.8,-,N/A,Rain,Light Rain,140,2013-10-31 03:55:00